Location: Ehrke Reservoir
(40.0279°N, 99.6641°W)
Time: 22:44:42
(UTC+00:00)

Cosmos 494 Rocket - Pass Details

Date: 20 January 2020
Orbit: 743 x 770 km, 74.1° (Epoch: 18 February)

Event Time Altitude Azimuth Distance (km) Brightness Sun altitude
Rises 01:18:59 0° 338° (NNW) 3,190 7.4 -18.4°
Reaches altitude 10° 01:21:21 10° 336° (NNW) 2,262 6.6 -18.8°
Maximum altitude 01:26:25 67° 254° (WSW) 804 4.3 -19.8°
Drops below altitude 10° 01:31:29 10° 172° (S) 2,252 6.4 -20.7°
Sets 01:33:50 0° 170° (S) 3,174 7.2 -21.2°
